Flag for U.S.A. Weather past 2 weeks in St. Louis, Missouri, U.S.A.

Now
64 °F

Passing clouds.


Feels Like: 64 °F
Forecast: 59 / 80 °F
Wind: 7 mph from Southeast

Location: Lambert-St. Louis International Airport

Current Time: Jun 3, 2015 at 12:39:39 AM

Latest Report: Jun 2, 2015 at 11:51 PM


Visibility: 10 mi

Pressure: 30.04 "Hg

Humidity: 75%

Dew point: 56 °F

Location of St. LouisLocation

Historic Weather in St. Louis — Graph

°F

St. Louis temperature yesterday

Maximum temperature yesterday: 74 °F (at 3:51 PM)
Minimum temperature yesterday: 59 °F (at 6:00 AM)
Average temperature yesterday: 67 °F

Past Weeks' High & Low Weather Summary

 TemperatureHumidityPressure
High85 °F (May 24, 1:51 PM)90% (May 30, 12:51 AM)30.31 "Hg (May 30, 12:51 AM)
Low47 °F (May 21, 5:51 AM)35% (May 23, 1:51 PM)29.80 "Hg (May 26, 5:51 AM)
Average67 °F66%30.07 "Hg
* Reported May 18 10:51 PM — Jun 2 10:51 PM, St. Louis, Weather by CustomWeather, © 2015

Note: Actual official high and low records may vary slightly from our data, if they occured in-between our weather recording intervals... More about our weather records

Advertising

St. Louis weather history for previous 24 hours

 ConditionsComfort  
Time TempWeatherWind HumidityBarometerVisibility
10:51 PM
Tue, Jun 2
65 °FPassing clouds.9 mph73%30.04 "Hg10 mi
9:51 PM66 °FPassing clouds.7 mph70%30.03 "Hg10 mi
8:51 PM67 °FPartly sunny.8 mph68%30.03 "Hg10 mi
7:51 PM70 °FBroken clouds.9 mph61%30.03 "Hg10 mi
6:51 PM72 °FScattered clouds.6 mph57%30.03 "Hg10 mi
5:51 PM73 °FScattered clouds.7 mph55%30.03 "Hg10 mi
4:51 PM74 °FScattered clouds.6 mph53%30.02 "Hg10 mi
3:51 PM74 °FScattered clouds.9 mph53%30.03 "Hg10 mi
2:51 PM73 °FScattered clouds.6 mph53%30.05 "Hg10 mi
1:51 PM72 °FBroken clouds.5 mph55%30.07 "Hg10 mi
12:51 PM70 °FBroken clouds.8 mph55%30.09 "Hg10 mi
11:51 AM71 °FBroken clouds.12 mph55%30.09 "Hg10 mi
10:51 AM69 °FScattered clouds.7 mph59%30.11 "Hg10 mi
9:51 AM66 °FScattered clouds.3 mph65%30.13 "Hg10 mi
8:51 AM65 °FScattered clouds.5 mph66%30.14 "Hg10 mi
7:51 AM63 °FPartly sunny.5 mph75%30.13 "Hg8 mi
6:51 AM61 °FPartly sunny.5 mph83%30.13 "Hg7 mi
6:00 AM59 °FFog.3 mph88%30.15 "Hg6 mi
4:51 AM61 °FPassing clouds.No wind83%30.12 "Hg9 mi
3:51 AM62 °FPassing clouds.3 mph83%30.11 "Hg10 mi
2:51 AM62 °FPassing clouds.No wind80%30.11 "Hg10 mi
1:51 AM63 °FPassing clouds.No wind78%30.10 "Hg10 mi
12:51 AM62 °FPassing clouds.5 mph78%30.10 "Hg10 mi
Weather by CustomWeather, © 2015

See weather overviewHow to use our weather pages